Regional Weather Roundup
Issued by NWS

Home | Current Version | Previous Version | Graphics & Text | Print | Product List | Glossary Off
Versions: 1 2 3 4 5 6 7 8 9 10 11 12 13 14 15 16 17 18 19 20 21 22 23 24 25 26 27 28 29 30 31 32 33 34 35 36 37 38 39 40 41 42 43 44 45 46 47 48 49 50

000
ASUS43 KDMX 220706
RWRIA

WEATHER ROUNDUP FOR IOWA
NATIONAL WEATHER SERVICE DES MOINES IA
100 AM CST WED NOV 22 2017

NOTE: "FAIR" INDICATES FEW OR NO CLOUDS BELOW 12,000 FEET WITH NO
SIGNIFICANT WEATHER AND/OR OBSTRUCTIONS TO VISIBILITY.

* - THESE STATIONS ARE NOT NWS STATIONS...THUS NOT UNDER NWS
QUALITY CONTROL.  THEY ALSO DO NOT REPORT WEATHER SUCH
AS PRECIPITATION OR FOG.

IAZ001>003-012>014-020>022-031>034-043>046-220800-
   NORTHWEST IOWA

CITY           SKY/WX    TMP DP  RH WIND       PRES   REMARKS
CARROLL *      CLOUDY    16  10  79 W8        30.38S WCI   5
CHEROKEE *     CLOUDY    14   9  79 CALM      30.40S
DENISON *      CLOUDY    18  10  73 NW5       30.41R WCI  11
LE MARS *      CLOUDY    14   9  79 SW3       30.41R
ORANGE CITY *  CLOUDY    16  10  79 N5        30.37S WCI   9
SHELDON *      CLOUDY    10   7  85 CALM      30.36S
SIOUX CITY     CLOUDY    15   8  73 NW5       30.41F WCI   8
SPENCER        CLOUDY    11   7  84 W3        30.38R
STORM LAKE *   CLOUDY    14   9  79 NW10      30.37R WCI   1
$$

IAZ055>058-069>071-079>083-090>094-220800-
   SOUTHWEST IOWA

CITY           SKY/WX    TMP DP  RH WIND       PRES   REMARKS
ATLANTIC *     CLOUDY    19  12  73 CALM      30.40R
AUDUBON *      CLOUDY    16  10  79 CALM      30.37F
CLARINDA *     CLOUDY    21  14  73 VRB3      30.43R
COUNCIL BLFS * CLOUDY    21  10  63 CALM      30.40F
CRESTON *      CLOUDY    18  12  79 NW9       30.38S WCI   6
HARLAN  *      CLOUDY    16  10  79 CALM      30.43S
LAMONI         CLOUDY    20  12  71 NW9       30.37R WCI   9
RED OAK *      CLOUDY    19  12  73 NW6       30.42R WCI  11
SHENANDOAH *   CLOUDY    21  12  68 N8        30.43S WCI  12
$$

IAZ047>049-059>061-072>074-084-220800-
   CENTRAL IOWA

CITY           SKY/WX    TMP DP  RH WIND       PRES   REMARKS
AMES           CLOUDY    21  12  68 NW12      30.37R WCI   9
ANKENY *       CLOUDY    21  12  68 NW9       30.38S WCI  11
BOONE *        CLOUDY    21  10  63 NW8       30.36S WCI  12
CHARITON *     CLOUDY    19  14  79 NW10      30.37R WCI   8
DES MOINES     CLOUDY    20  12  71 NW7       30.38R WCI  11
GRINNELL*      CLOUDY    19  14  82 NW8       30.35S WCI   9
KNOXVILLE *    CLOUDY    21  10  63 NW9       30.35R WCI  11
MARSHALLTOWN   CLOUDY    19  12  74 NW9       30.34R WCI   8
NEWTON *       CLOUDY    21  12  68 NW10G16   30.36R WCI  10
PELLA *        CLOUDY    19  13  76 NW6       30.38R WCI  11
PERRY *          N/A     17  12  82 NW6       30.38S WCI   8
$$

IAZ004>006-015-016-023>025-035-036-220800-
   NORTH CENTRAL IOWA

CITY           SKY/WX    TMP DP  RH WIND       PRES   REMARKS
ALGONA *       CLOUDY    16  10  79 NW10      30.36R WCI   3
CLARION *      CLOUDY    16  12  86 NW6       30.36R WCI   7
ESTHERVILLE    CLOUDY    12   8  84 NW8       30.36R WCI   0
FORT DODGE *   CLOUDY    17  11  77 W3        30.38R
MASON CITY     CLOUDY    16  10  77 NW10      30.34S WCI   4
FOREST CITY *    N/A     19  12  73 NW9       30.34S WCI   9
WEBSTER CITY * CLOUDY    16  10  79 NW9       30.34S WCI   4
IOWA FALLS *     N/A     21  13  72 NW10      30.35R WCI   9
$$

IAZ007>011-017>019-026>030-037>042-050>054-066-220800-
   NORTHEAST IOWA

CITY           SKY/WX    TMP DP  RH WIND       PRES   REMARKS
CEDAR RAPIDS   CLOUDY    16  12  84 NW5       30.31R WCI   9
CHARLES CITY * CLEAR     19  12  73 NW10      30.33R WCI   8
DECORAH *      CLOUDY    18  12  79 CALM      30.29R
DUBUQUE        CLEAR     20  12  71 N6        30.27S WCI  12
MONTICELLO *   CLOUDY    16  12  86 W3        30.30S
OELWEIN *      CLOUDY    18  16  93 NW12      30.31R WCI   5
WATERLOO       CLOUDY    19  12  74 NW9       30.33R WCI   8
$$

IAZ064-065-067-068-078-220800-
   EAST CENTRAL IOWA

CITY           SKY/WX    TMP DP  RH WIND       PRES   REMARKS
DAVENPORT      CLEAR     21  15  78 NW8       30.32S WCI  11
IOWA CITY      CLOUDY    22  14  71 NW7       30.34R WCI  13
MT. PLEASANT * CLOUDY    22  14  72 NW5       30.33R WCI  15
MUSCATINE *    CLOUDY    19  14  79 CALM      30.34R
QUAD CITIES    CLEAR     23  15  71 NW6       30.30S WCI  16
$$

IAZ062-063-075>077-085>089-095>099-220800-
   SOUTHEAST IOWA

CITY           SKY/WX    TMP DP  RH WIND       PRES   REMARKS
BURLINGTON     CLOUDY    23  16  74 NW7       30.31S WCI  15
FAIRFIELD *    CLEAR     19  12  73 NW7       30.33S WCI  10
FORT MADISON * CLOUDY    21  16  79 NW7       30.32S WCI  13
KEOKUK *       CLEAR     23  16  74 NW7       30.32S WCI  15
OSKALOOSA *      N/A     19  15  82 NW9       30.35S WCI   9
OTTUMWA        CLOUDY    20  13  74 NW9       30.35R WCI   9
WASHINGTON *   CLOUDY    21  16  79 NW10      30.34R WCI  10
$$

ABBREVIATIONS USED IN REMARKS
   TC - TEMPERATURES IN CELSIUS
  WCI - WIND CHILL INDEX
   HX - HEAT INDEX
  VSB - VISIBILITY
$$





USA.gov is the U.S. government's official web portal to all federal, state and local government web resources and services.